DW2380 Paimio FI current weather conditions

sailwx.info

Wind from 313

Air temperature 24.4° C
Dewpoint 14.5° C

Last reported at 2014-Jul-22 18:37 UTC.
Time now 2014-Jul-22 19:34 UTC

Location: N 60°28' E 022°40'.
View on Google Maps.

See reports from other nearby stations

  
Tides and Currents Weather Stations Pressure Air Temp Water Temp Dewpoint Dewpoint Depression Visibility Wind Speed Wind Dir Waves Ship Positions
date/time (UTC)wind fromknots sea level pressurealtimeterstation pressurevisibilityair tempwater tempwave heightnotes
2014-Jul-22 18:37 313 24.4
2014-Jul-22 18:22 313 25.6
2014-Jul-22 18:07 313 26.1
2014-Jul-22 17:52 333 26.7
2014-Jul-22 17:37 329 27.2
2014-Jul-22 17:22 336 0 gusting 4 27.8
2014-Jul-22 17:06 346 28.3
2014-Jul-22 16:51 016 28.9
2014-Jul-22 16:36 299 1 gusting 4 28.9
2014-Jul-22 16:21 310 2 gusting 6 29.4
2014-Jul-22 16:06 076 29.4
2014-Jul-22 15:51 065 0 gusting 4 29.4
2014-Jul-22 15:36 350 0 gusting 5 29.4
2014-Jul-22 15:21 013 0 gusting 4 28.9
2014-Jul-22 14:51 015 2 gusting 6 29.4
2014-Jul-22 14:36 237 2 gusting 9 28.9
2014-Jul-22 14:21 308 2 gusting 6 28.9
2014-Jul-22 14:06 288 3 gusting 6 28.9
2014-Jul-22 13:49 333 0 gusting 6 28.3
2014-Jul-22 13:36 341 3 gusting 6 28.9
2014-Jul-22 13:19 019 0 gusting 8 29.4
2014-Jul-22 13:04 030 5 gusting 9 29.4
2014-Jul-22 12:49 045 1 gusting 5 29.4
2014-Jul-22 12:34 043 1 gusting 6 28.9
2014-Jul-22 12:18 300 1 gusting 6 27.8
2014-Jul-22 12:03 312 5 gusting 8 27.8
2014-Jul-22 11:48 080 0 gusting 4 27.8
2014-Jul-22 11:33 011 3 gusting 7 27.8
2014-Jul-22 11:18 329 2 gusting 7 27.8
2014-Jul-22 11:03 324 1 gusting 7 28.3
2014-Jul-22 10:48 335 1 gusting 6 28.3
2014-Jul-22 10:33 049 1 gusting 9 28.3
2014-Jul-22 10:17 054 27.8
2014-Jul-22 10:02 342 0 gusting 6 27.8
2014-Jul-22 09:47 030 2 gusting 6 27.8
2014-Jul-22 09:32 053 27.2
2014-Jul-22 09:17 049 0 gusting 5 26.7
2014-Jul-22 09:01 036 26.1
2014-Jul-22 08:46 045 2 gusting 7 26.7
2014-Jul-22 08:31 038 1 gusting 6 27.2
2014-Jul-22 08:16 042 0 gusting 6 26.7
2014-Jul-22 08:01 059 2 gusting 7 26.1
2014-Jul-22 07:46 036 25.6
2014-Jul-22 07:31 060 1 gusting 7 25.0
2014-Jul-22 07:16 022 0 gusting 3 25.0
2014-Jul-22 07:01 057 24.4
2014-Jul-22 06:46 326 23.3
2014-Jul-22 06:31 326 22.2
2014-Jul-22 06:14 326 21.7
2014-Jul-22 05:59 326 20.6
2014-Jul-22 05:44 326 20.0
2014-Jul-22 05:29 323 18.9
2014-Jul-22 05:14 350 18.3
2014-Jul-22 04:59 021 17.2
2014-Jul-22 04:43 258 16.1
2014-Jul-22 04:28 258 0 gusting 2 15.6
2014-Jul-22 04:13 258 0 gusting 3 14.4
2014-Jul-22 03:58 258 13.9
2014-Jul-22 03:42 258 13.3
2014-Jul-22 03:27 258 12.8
2014-Jul-22 03:12 258 12.8
2014-Jul-22 02:57 258 12.2
2014-Jul-22 02:42 258 11.7
2014-Jul-22 02:27 258 11.7
2014-Jul-22 02:11 258 11.7
2014-Jul-22 01:56 258 11.7
2014-Jul-22 01:41 258 0 gusting 2 11.7
2014-Jul-22 01:26 257 11.7
2014-Jul-22 01:11 258 12.2
2014-Jul-22 00:56 258 12.2
2014-Jul-22 00:41 258 12.2
2014-Jul-22 00:26 258 12.2
2014-Jul-22 00:11 257 12.2
2014-Jul-21 23:56 258 12.8
2014-Jul-21 23:41 258 0 gusting 2 12.8
2014-Jul-21 23:26 257 12.8
2014-Jul-21 23:09 237 0 gusting 2 13.3
2014-Jul-21 22:56 237 13.3
2014-Jul-21 22:39 237 13.9
2014-Jul-21 22:24 237 14.4
2014-Jul-21 22:09 237 15.0
2014-Jul-21 21:54 237 15.0
2014-Jul-21 21:39 237 15.6
2014-Jul-21 21:23 237 16.1
2014-Jul-21 21:08 237 16.1
2014-Jul-21 20:53 237 16.7
2014-Jul-21 20:38 237 17.2
2014-Jul-21 20:23 237 17.8
2014-Jul-21 20:07 237 18.3
2014-Jul-21 19:52 237 19.4
2014-Jul-21 19:37 237 20.0
2014-Jul-21 19:22 237 20.6
2014-Jul-21 19:07 237 21.1
2014-Jul-21 18:52 237 21.7
2014-Jul-21 18:37 237 22.2
2014-Jul-21 18:22 237 22.8
2014-Jul-21 17:51 211 23.9
2014-Jul-21 17:36 214 0 gusting 5 23.9
2014-Jul-21 17:21 223 0 gusting 6 24.4
2014-Jul-21 17:06 214 3 gusting 6 25.0
2014-Jul-21 16:52 212 25.6
2014-Jul-21 16:36 192 2 gusting 6 25.6
2014-Jul-21 16:21 192 3 gusting 7 25.6
2014-Jul-21 16:06 178 2 gusting 6 25.6
2014-Jul-21 15:51 182 4 gusting 7 25.0
2014-Jul-21 15:36 167 4 gusting 7 24.4
2014-Jul-21 15:21 187 1 gusting 5 24.4
2014-Jul-21 15:05 131 5 gusting 6 23.9
2014-Jul-21 14:49 146 2 gusting 9 23.9
2014-Jul-21 14:34 165 5 gusting 10 24.4
2014-Jul-21 14:19 173 6 gusting 13 25.6
2014-Jul-21 14:04 205 6 gusting 12 27.2
2014-Jul-21 13:49 136 4 gusting 9 28.3
2014-Jul-21 13:35 113 28.3
2014-Jul-21 13:04 108 28.3
2014-Jul-21 12:48 023 1 gusting 6 27.8
2014-Jul-21 12:33 072 3 gusting 6 27.2
2014-Jul-21 12:18 051 6 gusting 9 27.8
2014-Jul-21 12:03 010 27.8
2014-Jul-21 11:48 044 6 gusting 11 27.8
2014-Jul-21 11:32 360 2 gusting 11 27.8
2014-Jul-21 11:17 355 4 gusting 8 27.2
2014-Jul-21 11:02 065 4 gusting 8 27.2
2014-Jul-21 10:47 030 5 gusting 8 27.8
2014-Jul-21 10:32 047 5 gusting 9 27.8
2014-Jul-21 10:17 355 5 gusting 10 27.8
2014-Jul-21 10:02 040 4 gusting 7 27.8
2014-Jul-21 09:46 294 3 gusting 7 27.8
2014-Jul-21 09:31 347 3 gusting 11 27.2
2014-Jul-21 09:16 047 1 gusting 8 27.2
2014-Jul-21 09:01 042 4 gusting 10 26.7
2014-Jul-21 08:46 005 2 gusting 6 26.7
2014-Jul-21 08:31 017 3 gusting 9 26.1
2014-Jul-21 08:16 360 3 gusting 8 26.1
2014-Jul-21 08:01 355 2 gusting 6 25.6
2014-Jul-21 07:46 319 0 gusting 6 25.0
2014-Jul-21 07:31 320 1 gusting 4 24.4
2014-Jul-21 07:16 327 23.3
2014-Jul-21 06:59 327 22.2
2014-Jul-21 06:44 327 20.6
2014-Jul-21 06:29 327 20.0
2014-Jul-21 06:14 327 18.9
2014-Jul-21 05:59 327 18.3
2014-Jul-21 05:44 327 0 gusting 3 17.8
2014-Jul-21 05:28 327 0 gusting 4 17.2
2014-Jul-21 05:13 327 17.2
2014-Jul-21 04:58 327 17.2
2014-Jul-21 04:43 327 16.7
2014-Jul-21 04:28 327 16.1
2014-Jul-21 04:12 315 15.6
2014-Jul-21 03:57 306 15.0
2014-Jul-21 03:42 307 13.9
2014-Jul-21 03:27 307 13.3
2014-Jul-21 03:12 307 12.8
2014-Jul-21 02:57 307 12.8
2014-Jul-21 02:42 307 12.2
2014-Jul-21 02:27 307 12.2
2014-Jul-21 02:12 307 12.2
2014-Jul-21 01:57 307 12.2
2014-Jul-21 01:42 307 12.2
2014-Jul-21 01:27 307 12.8
2014-Jul-21 01:12 307 12.8
2014-Jul-21 00:57 307 12.8
2014-Jul-21 00:42 307 12.8
2014-Jul-21 00:27 307 12.8
2014-Jul-21 00:11 307 13.3
2014-Jul-20 23:57 307 13.3
2014-Jul-20 23:41 307 13.3
2014-Jul-20 23:26 307 13.3
2014-Jul-20 23:11 307 13.9
2014-Jul-20 22:56 307 13.9
2014-Jul-20 22:41 307 13.9
2014-Jul-20 22:26 307 14.4
2014-Jul-20 22:11 307 15.0
2014-Jul-20 21:56 307 15.0
2014-Jul-20 21:41 307 15.6
2014-Jul-20 21:26 307 15.6
2014-Jul-20 21:11 307 15.6
2014-Jul-20 20:56 307 16.1
2014-Jul-20 20:41 307 16.1
2014-Jul-20 20:26 307 16.7
2014-Jul-20 20:11 307 17.2
2014-Jul-20 19:56 307 17.8
2014-Jul-20 19:44 307 17.8
2014-Jul-20 19:26 307 18.3
2014-Jul-20 19:11 307 19.4